Terug naar catalogus

SL-12 R/B(2)

ActiefGEO
NORAD 11568·ROCKET BODY·🇷🇺 Russia

Gelanceerd Dec 22, 1975 vanaf Baikonur Cosmodrome

Loading…

TLE

VersSource: Space-Track

Epoch: Sep 14, 2026, 10:10 UTC

1 11568U 75123F   26257.42415116 -.00000259  00000-0  00000-0 0  9992
2 11568   2.3216 261.8209 0013988 225.6355 336.1196  1.00491197122895

Volg SL-12 R/B(2) in realtime met AllMySat

Download on the App Store